Terminal Aerodrome Forecast
Issued by NWS Corpus Christi, TX

Home | Current Version | Previous Version | Text Only | Print | Product List | Glossary On
Versions: 1 2 3 4 5 6 7 8 9 10 11 12 13 14 15 16
000
FTUS44 KCRP 220523
TAFVCT
TAF
KVCT 220523Z 2206/2306 VRB04KT P6SM FEW020
      TEMPO 2209/2213 5SM BR
     FM221600 15010KT P6SM SCT025 SCT035=

USA.gov is the U.S. government's official web portal to all federal, state and local government web resources and services.